Nogales, AZ

1:37 AM MST on February 25, 2017 (GMT -0700)
Nogales International

Weather History for KOLS - January, 2013

Change the Weather History Date:

Sunday, January 27, 2013

  Actual Average (KFHU) Record (KFHU)
Temperature  
Mean Temperature 54 °F -  
Max Temperature 60 °F 59 °F 78 °F (1987)
Min Temperature 48 °F 37 °F 24 °F (1990)
Degree Days  
Heating Degree Days 11    
Growing Degree Days 4 (Base 50)    
Moisture  
Dew Point 46 °F    
Average Humidity 80    
Maximum Humidity 94    
Minimum Humidity 55    
Precipitation  
Precipitation 0.07 in - - ()
Sea Level Pressure  
Sea Level Pressure 29.99 in    
Wind  
Wind Speed 4 mph (SSE)    
Max Wind Speed 14 mph    
Max Gust Speed -    
Visibility 9 miles    
Events Rain    
Averages and records for this station are not official NWS values.
T = Trace of Precipitation, MM = Missing Value Source: NWS Daily Summary

Daily Weather History Graph

Daily Weather History Graph

Search for Another Location

Airport or City:

Trip Planner

Search our weather history database for the weather conditions in past years. The results will help you decide how hot, cold, wet, or windy it might be!

Date:

Astronomy

Jan. 27, 2013 Rise Set
Actual Time 7:18 AM MST 5:54 PM MST
Civil Twilight 6:53 AM MST 6:19 PM MST
Nautical Twilight 6:23 AM MST 6:49 PM MST
Astronomical Twilight 5:54 AM MST 7:17 PM MST
Moon 6:44 PM MST (1/27) 7:19 AM MST (1/27)
Length of Visible Light 11h 26m
Length of Day
10h 35m
Full, 100% of the Moon is Illuminated
Jan 27
Full
Feb 3
Last Quarter
Feb 10
New
Feb 17
First Quarter
Feb 25
Full

Hourly Weather History & Observations

Time (MST) Temp. Dew Point Humidity Pressure Visibility Wind Dir Wind Speed Gust Speed Precip Events Conditions
12:54 AM 51.1 °F 46.0 °F 83% 29.95 in 10.0 mi SE 3.5 mph - 0.02 in   Overcast
1:15 AM 50.0 °F 46.9 °F 89% 30.05 in 10.0 mi Calm Calm - N/A   Overcast
1:24 AM 51.1 °F 46.9 °F 86% 30.05 in 10.0 mi Calm Calm - N/A   Overcast
1:54 AM 51.1 °F 46.0 °F 83% 29.94 in 10.0 mi Calm Calm - N/A   Overcast
2:42 AM 50.0 °F 46.9 °F 89% 30.04 in 10.0 mi SSE 3.5 mph - N/A   Overcast
2:54 AM 51.1 °F 46.9 °F 86% 29.94 in 10.0 mi South 6.9 mph - 0.00 in Rain Light Rain
3:15 AM 50.0 °F 46.9 °F 89% 30.04 in 10.0 mi ESE 3.5 mph - 0.00 in Rain Light Rain
3:54 AM 51.1 °F 46.0 °F 83% 29.94 in 10.0 mi SSE 5.8 mph - 0.00 in   Overcast
4:04 AM 51.1 °F 46.0 °F 83% 30.04 in 10.0 mi SSE 3.5 mph - N/A   Overcast
4:24 AM 51.1 °F 46.9 °F 86% 30.03 in 10.0 mi Calm Calm - N/A   Overcast
4:32 AM 51.1 °F 46.9 °F 86% 30.03 in 10.0 mi Calm Calm - N/A   Overcast
4:54 AM 50.0 °F 46.9 °F 89% 29.93 in 10.0 mi Calm Calm - N/A   Overcast
5:01 AM 50.0 °F 46.9 °F 89% 30.03 in 10.0 mi ESE 3.5 mph - N/A   Overcast
5:54 AM 50.0 °F 46.0 °F 86% 29.93 in 10.0 mi Calm Calm - N/A   Overcast
6:38 AM 48.9 °F 46.9 °F 93% 30.04 in 10.0 mi SSE 3.5 mph - 0.00 in Rain Light Rain
6:54 AM 48.9 °F 46.9 °F 93% 29.96 in 10.0 mi Calm Calm - 0.00 in Rain Light Rain
7:49 AM 50.0 °F 48.2 °F 94% 30.06 in 8.0 mi Calm Calm - 0.04 in   Overcast
7:54 AM 50.0 °F 48.0 °F 93% 29.97 in 8.0 mi SW 3.5 mph - 0.04 in Rain Light Rain
8:01 AM 50.0 °F 48.0 °F 93% 30.06 in 3.0 mi Calm Calm - 0.00 in Rain Light Rain
8:04 AM 50.0 °F 48.0 °F 93% 30.06 in 2.5 mi Calm Calm - 0.00 in Rain Light Rain
8:07 AM 50.0 °F 48.0 °F 93% 30.06 in 3.0 mi South 3.5 mph - 0.01 in Rain Light Rain
8:13 AM 50.0 °F 48.0 °F 93% 30.06 in 2.5 mi SSE 3.5 mph - 0.01 in Rain Light Rain
8:20 AM 50.0 °F 48.0 °F 93% 30.06 in 3.0 mi Variable 4.6 mph - 0.01 in Rain Light Rain
8:27 AM 50.0 °F 48.0 °F 93% 30.06 in 5.0 mi SSE 5.8 mph - 0.01 in Rain Light Rain
8:31 AM 50.0 °F 48.0 °F 93% 30.06 in 4.0 mi SE 4.6 mph - 0.01 in Rain Light Rain
8:39 AM 50.0 °F 48.0 °F 93% 30.06 in 8.0 mi East 5.8 mph - 0.01 in Rain Light Rain
8:54 AM 51.1 °F 48.0 °F 89% 29.97 in 10.0 mi ESE 5.8 mph - 0.01 in   Overcast
9:54 AM 54.0 °F 46.9 °F 77% 29.97 in 10.0 mi South 6.9 mph - N/A   Scattered Clouds
10:54 AM 55.0 °F 46.9 °F 74% 29.98 in 10.0 mi SSE 10.4 mph - N/A   Mostly Cloudy
11:22 AM 57.9 °F 46.9 °F 67% 30.07 in 10.0 mi SSE 8.1 mph - N/A   Mostly Cloudy
11:39 AM 57.0 °F 46.9 °F 69% 30.06 in 10.0 mi South 10.4 mph - N/A   Overcast
11:54 AM 57.0 °F 45.0 °F 64% 29.96 in 10.0 mi SSW 9.2 mph - N/A   Overcast
12:06 PM 59.0 °F 45.0 °F 60% 30.05 in 10.0 mi SSW 12.7 mph - N/A   Overcast
12:54 PM 59.0 °F 44.1 °F 58% 29.92 in 10.0 mi South 11.5 mph - N/A   Overcast
1:54 PM 60.1 °F 44.1 °F 55% 29.90 in 10.0 mi South 13.8 mph - N/A   Overcast
2:54 PM 59.0 °F 44.1 °F 58% 29.89 in 10.0 mi South 11.5 mph - N/A   Overcast
3:54 PM 59.0 °F 45.0 °F 60% 29.89 in 10.0 mi South 9.2 mph - N/A   Overcast
4:54 PM 57.9 °F 44.1 °F 60% 29.89 in 10.0 mi SSW 12.7 mph - N/A   Overcast
5:54 PM 57.0 °F 43.0 °F 59% 29.90 in 10.0 mi South 9.2 mph - N/A   Overcast
6:54 PM 54.0 °F 44.1 °F 69% 29.91 in 10.0 mi South 5.8 mph - N/A   Mostly Cloudy
7:54 PM 52.0 °F 44.1 °F 74% 29.91 in 10.0 mi South 6.9 mph - N/A   Mostly Cloudy
8:54 PM 52.0 °F 44.1 °F 74% 29.91 in 10.0 mi South 4.6 mph - N/A   Overcast
9:54 PM 53.1 °F 45.0 °F 74% 29.90 in 10.0 mi South 6.9 mph - N/A   Overcast
10:54 PM 52.0 °F 44.1 °F 74% 29.90 in 10.0 mi South 9.2 mph - N/A   Mostly Cloudy
11:54 PM 52.0 °F 43.0 °F 71% 29.90 in 10.0 mi South 8.1 mph - N/A   Mostly Cloudy